Grand Island, NE

4:59 PM CDT on August 31, 2016 (GMT -0500)
Central Nebraska Regional

Weather History for KGRI - May, 2013

Change the Weather History Date:

Saturday, May 18, 2013

  Actual Average Record
Temperature  
Mean Temperature 73 °F 62 °F  
Max Temperature 82 °F 73 °F 96 °F (1970)
Min Temperature 63 °F 50 °F 32 °F (1942)
Degree Days  
Heating Degree Days 0 5  
Month to date heating degree days 161 128  
Since 1 July heating degree days 6087 6130  
Cooling Degree Days 8 2  
Month to date cooling degree days 55 21  
Year to date cooling degree days 61 32  
Growing Degree Days 22 (Base 50)    
Moisture  
Dew Point 63 °F    
Average Humidity 71    
Maximum Humidity 93    
Minimum Humidity 49    
Precipitation  
Precipitation 0.22 in 0.15 in 2.50 in (1921)
Month to date precipitation 1.41 2.44  
Year to date precipitation 8.01 7.98  
Snow  
Snow 0.00 in 0.00 in T in (1990)
Month to date snowfall 0.7 0.1  
Since 1 July snowfall 35.2 29.1  
Snow Depth 0.00 in    
Sea Level Pressure  
Sea Level Pressure 29.76 in    
Wind  
Wind Speed 13 mph (SSE)    
Max Wind Speed 31 mph    
Max Gust Speed 40 mph    
Visibility 8 miles    
Events Rain , Thunderstorm    
T = Trace of Precipitation, MM = Missing Value Source: NWS Daily Summary

Daily Weather History Graph

Daily Weather History Graph

Search for Another Location

Airport or City:

Trip Planner

Search our weather history database for the weather conditions in past years. The results will help you decide how hot, cold, wet, or windy it might be!

Date:

Astronomy

May. 18, 2013 Rise Set
Actual Time 6:12 AM CDT 8:47 PM CDT
Civil Twilight 5:40 AM CDT 9:19 PM CDT
Nautical Twilight 5:01 AM CDT 9:58 PM CDT
Astronomical Twilight 4:17 AM CDT 10:43 PM CDT
Moon 1:49 PM CDT (5/18) 2:09 AM CDT (5/18)
Length of Visible Light 15h 38m
Length of Day
14h 34m
First Quarter, 55% of the Moon is Illuminated
May 18
First Quarter
May 24
Full
May 31
Last Quarter
Jun 8
New
Jun 16
First Quarter

Hourly Weather History & Observations

Time (CDT) Temp. Heat Index Dew Point Humidity Pressure Visibility Wind Dir Wind Speed Gust Speed Precip Events Conditions
12:53 AM 70.0 °F - 60.1 °F 71% 29.81 in 10.0 mi SSE 15.0 mph - N/A   Clear
1:53 AM 69.1 °F - 61.0 °F 75% 29.82 in 10.0 mi South 13.8 mph 25.3 mph N/A   Clear
2:53 AM 66.9 °F - 60.1 °F 79% 29.81 in 10.0 mi South 11.5 mph - N/A   Clear
3:53 AM 64.9 °F - 60.1 °F 84% 29.80 in 10.0 mi SSE 9.2 mph - N/A   Clear
4:53 AM 64.0 °F - 60.1 °F 87% 29.80 in 10.0 mi ESE 5.8 mph - N/A   Clear
5:49 AM 62.6 °F - 60.8 °F 94% 29.85 in 10.0 mi East 5.8 mph - N/A   Mostly Cloudy
5:53 AM 63.0 °F - 60.1 °F 90% 29.81 in 10.0 mi East 6.9 mph - N/A   Overcast
6:53 AM 64.0 °F - 61.0 °F 90% 29.80 in 8.0 mi SE 9.2 mph - N/A   Overcast
7:16 AM 64.4 °F - 60.8 °F 88% 29.84 in 8.0 mi SE 10.4 mph - N/A   Overcast
7:53 AM 64.9 °F - 62.1 °F 90% 29.80 in 6.0 mi SE 12.7 mph 21.9 mph N/A   Overcast
8:53 AM 66.9 °F - 63.0 °F 87% 29.81 in 6.0 mi SE 11.5 mph - N/A   Overcast
9:53 AM 66.9 °F - 64.0 °F 90% 29.83 in 6.0 mi SE 5.8 mph - N/A   Overcast
10:53 AM 70.0 °F - 64.9 °F 84% 29.79 in 6.0 mi SE 11.5 mph - 0.00 in   Haze
11:07 AM 71.6 °F - 66.2 °F 83% 29.83 in 6.0 mi SE 11.5 mph - N/A   Haze
11:53 AM 73.0 °F - 66.0 °F 79% 29.79 in 7.0 mi SE 12.7 mph - N/A   Overcast
12:18 PM 75.2 °F - 66.2 °F 73% 29.82 in 8.0 mi SE 13.8 mph - N/A   Overcast
12:53 PM 77.0 °F - 66.9 °F 71% 29.76 in 8.0 mi SE 16.1 mph 23.0 mph N/A   Overcast
1:53 PM 77.0 °F - 66.2 °F 69% 29.80 in 8.0 mi SSE 17.3 mph 26.5 mph N/A   Overcast
2:53 PM 73.0 °F - 69.1 °F 87% 29.77 in 4.0 mi South 16.1 mph 21.9 mph 0.00 in Rain Light Rain
3:09 PM 75.2 °F - 69.8 °F 83% 29.80 in 6.0 mi South 13.8 mph - 0.00 in   Haze
3:24 PM 75.2 °F - 68.0 °F 78% 29.78 in 6.0 mi SSE 18.4 mph 23.0 mph 0.00 in   Haze
3:53 PM 75.0 °F - 68.0 °F 79% 29.73 in 9.0 mi SSE 13.8 mph 20.7 mph 0.01 in   Scattered Clouds
4:53 PM 79.0 °F - 69.1 °F 72% 29.69 in 10.0 mi SE 12.7 mph - N/A   Clear
5:53 PM 82.0 °F 84.1 °F 66.0 °F 58% 29.66 in 10.0 mi SE 17.3 mph 25.3 mph N/A   Clear
6:53 PM 81.0 °F 83.0 °F 66.0 °F 60% 29.65 in 10.0 mi SE 17.3 mph - N/A   Clear
7:53 PM 79.0 °F - 66.9 °F 66% 29.66 in 9.0 mi SSE 12.7 mph - N/A   Clear
8:42 PM 78.8 °F - 66.2 °F 65% 29.70 in 10.0 mi South 9.2 mph - N/A Thunderstorm Mostly Cloudy
8:53 PM 71.1 °F - 57.0 °F 61% 29.70 in 10.0 mi SW 24.2 mph 40.3 mph 0.00 in Rain , Thunderstorm Light Thunderstorms and Rain
9:03 PM 66.2 °F - 60.8 °F 83% 29.76 in 4.0 mi SW 18.4 mph 28.8 mph 0.02 in Rain , Thunderstorm Heavy Thunderstorms and Rain
9:11 PM 64.4 °F - 60.8 °F 88% 29.75 in 2.0 mi SW 20.7 mph 31.1 mph 0.15 in Rain , Thunderstorm Heavy Thunderstorms and Rain
9:21 PM 64.4 °F - 60.8 °F 88% 29.76 in 6.0 mi South 11.5 mph - 0.19 in Rain , Thunderstorm Thunderstorms and Rain
9:53 PM 64.0 °F - 60.1 °F 87% 29.65 in 10.0 mi SE 19.6 mph 25.3 mph 0.20 in Rain Light Rain
10:53 PM 69.1 °F - 55.0 °F 61% 29.58 in 10.0 mi SE 24.2 mph 33.4 mph 0.00 in   Partly Cloudy
11:53 PM 73.0 °F - 53.1 °F 49% 29.60 in 10.0 mi SE 18.4 mph 33.4 mph N/A   Partly Cloudy